Zurück zum Katalog

STARLINK-31751

AktivKommunikationVLEO
NORAD 59574·PAYLOAD·🇺🇸 United States

Gestartet Apr 23, 2024 von Cape Canaveral Space Force Station

Loading…

Nächste Überflüge (nächste 24 Stunden)

TLE

AktuellSource: CelesTrak SupGP

Epoche: Sep 14, 2026, 22:14 UTC

1 59574C 24076L   26257.92687500  .00011289  00000+0  40886-3 0  2574
2 59574  43.0034  20.6171 0001807 274.8428 326.3842 15.27575969    19

Verfolge STARLINK-31751 in Echtzeit mit AllMySat

Download on the App Store